Date String (YYYY-MM-DD hh:mm:ss) UTC,Instrument flags,absolute air pressure of the measurement (hPa),sample flow rate (lpm),inlet stack bypass flow (lpm),air temperature of the measurement (°C),ambient temperature measured by the external sensor (°C),aerosol sample conditioner tube jacket temperature (°C),OPC LED temperature (°C),internal box temperature (°C),relative humidity of the measurement (%),span deviation,mass concentration of particles derived from Lorenz-Mie calculation of OPC scattering (μg/m³),mass concentration of particles derived from Lorenz-Mie calculation of OPC scattering (μg/m³),mass concentration of particles derived from Lorenz-Mie calculation of OPC scattering (μg/m³)
DateTimeUTC,F1_M11,P_M11,Q1_M11,Q2_M11,T1_M11,T2_M11,T3_M11,T4_M11,T5_M11,U1_M11,ZSPAN_M11,X0_M11,X2_M11,X1_M11
2023-08-02 23:00:00,SystemResetWarning,0833.9,5.00,000.00,029.7,026.7,000.0,037.7,030.6,33.7,0000.0,0007.38,0003.51,0003.12
2023-08-02 23:01:00,SystemResetWarning,0833.9,5.00,000.00,029.7,027.1,000.0,037.8,030.7,34.1,0000.0,0007.65,0003.46,0003.07
2023-08-02 23:02:00,SystemResetWarning,0833.8,4.99,000.00,029.7,027.4,000.0,037.8,030.8,34.3,0000.0,0007.68,0003.40,0003.00
2023-08-02 23:03:00,SystemResetWarning,0833.8,4.99,000.00,029.8,027.7,000.0,037.8,030.9,34.6,0000.0,0007.59,0003.36,0002.95
2023-08-02 23:04:00,SystemResetWarning,0833.8,4.99,000.00,029.8,027.6,000.0,037.8,030.9,34.0,0000.0,0007.37,0003.29,0002.86
2023-08-02 23:05:00,SystemResetWarning,0833.8,4.99,000.00,029.8,026.3,000.0,037.7,030.8,34.1,0000.0,0007.29,0003.24,0002.80
2023-08-02 23:06:00,SystemResetWarning,0833.8,5.01,000.00,029.7,025.2,000.0,037.6,030.6,34.1,0000.0,0007.19,0003.20,0002.72
2023-08-02 23:07:00,SystemResetWarning,0833.7,5.01,000.00,029.6,025.2,000.0,037.6,030.4,34.2,0000.0,0007.08,0003.16,0002.64
2023-08-02 23:08:00,SystemResetWarning,0833.6,4.99,000.00,029.5,025.5,000.0,037.7,030.3,35.0,0000.0,0006.01,0003.08,0002.57
2023-08-02 23:09:00,SystemResetWarning,0833.6,5.02,000.00,029.6,026.0,000.0,037.7,030.5,35.6,0000.0,0005.79,0003.02,0002.53
2023-08-02 23:10:00,SystemResetWarning,0833.6,4.97,000.00,029.8,026.4,000.0,037.7,030.7,35.1,0000.0,0005.82,0003.02,0002.51
2023-08-02 23:11:00,SystemResetWarning,0833.5,5.04,000.00,030.1,026.9,000.0,037.8,030.9,34.2,0000.0,0004.87,0003.03,0002.52
2023-08-02 23:12:00,SystemResetWarning,0833.5,4.96,000.00,030.3,027.2,000.0,037.8,031.0,33.0,0000.0,0004.65,0003.04,0002.53
2023-08-02 23:13:00,SystemResetWarning,0833.5,5.01,000.00,030.4,027.5,000.0,037.9,031.1,33.3,0000.0,0004.54,0003.05,0002.55
2023-08-02 23:14:00,SystemResetWarning,0833.4,5.01,000.00,030.5,027.6,000.0,037.9,031.1,31.8,0000.0,0004.48,0003.05,0002.55
2023-08-02 23:15:00,SystemResetWarning,0833.4,4.99,000.00,030.6,026.4,000.0,037.9,030.9,31.7,0000.0,0004.53,0003.06,0002.56
2023-08-02 23:16:00,SystemResetWarning,0833.4,4.99,000.00,030.5,025.2,000.0,037.9,030.7,32.2,0000.0,0004.48,0003.04,0002.54
2023-08-02 23:17:00,SystemResetWarning,0833.4,5.01,000.00,030.5,025.1,000.0,037.9,030.6,32.7,0000.0,0004.46,0003.04,0002.55
2023-08-02 23:18:00,SystemResetWarning,0833.3,5.01,000.00,030.3,025.4,000.0,038.0,030.4,32.5,0000.0,0004.51,0003.06,0002.56
2023-08-02 23:19:00,SystemResetWarning,0833.2,4.99,000.00,030.3,025.9,000.0,038.0,030.6,33.3,0000.0,0004.76,0003.13,0002.58
2023-08-02 23:20:00,SystemResetWarning,0833.2,5.00,000.00,030.3,026.3,000.0,038.1,030.7,32.7,0000.0,0004.89,0003.16,0002.60
2023-08-02 23:21:00,SystemResetWarning,0833.2,5.01,000.00,030.3,026.7,000.0,038.1,030.8,33.3,0000.0,0004.86,0003.16,0002.60
2023-08-02 23:22:00,SystemResetWarning,0833.2,5.00,000.00,030.3,027.1,000.0,038.2,030.9,33.4,0000.0,0004.85,0003.16,0002.62
2023-08-02 23:23:00,SystemResetWarning,0833.2,5.00,000.00,030.3,027.4,000.0,038.2,031.0,32.5,0000.0,0004.71,0003.17,0002.63
2023-08-02 23:24:00,SystemResetWarning,0833.2,5.00,000.00,030.3,027.7,000.0,038.3,031.1,32.8,0000.0,0004.63,0003.19,0002.63
2023-08-02 23:25:00,SystemResetWarning,0833.2,4.99,000.00,030.3,027.4,000.0,038.2,031.1,33.6,0000.0,0004.77,0003.24,0002.66
2023-08-02 23:26:00,SystemResetWarning,0833.2,4.99,000.00,030.3,026.0,000.0,038.1,030.8,33.7,0000.0,0004.73,0003.24,0002.67
2023-08-02 23:27:00,SystemResetWarning,0833.0,5.02,000.00,030.2,025.1,000.0,038.0,030.6,34.4,0000.0,0004.67,0003.23,0002.70
2023-08-02 23:28:00,SystemResetWarning,0833.4,4.99,000.00,030.1,025.2,000.0,038.0,030.4,34.3,0000.0,0004.77,0003.25,0002.73
2023-08-02 23:29:00,SystemResetWarning,0832.9,5.00,000.00,030.0,025.5,000.0,038.1,030.5,34.8,0000.0,0004.86,0003.27,0002.75
2023-08-02 23:30:00,SystemResetWarning,0833.0,5.01,000.00,029.9,026.0,000.0,038.1,030.6,34.2,0000.0,0004.73,0003.24,0002.75
2023-08-02 23:31:00,SystemResetWarning,0833.2,5.00,000.00,029.9,026.5,000.0,038.1,030.7,34.3,0000.0,0004.64,0003.22,0002.75
2023-08-02 23:32:00,SystemResetWarning,0832.8,5.00,000.00,029.9,026.9,000.0,038.1,030.8,34.7,0000.0,0004.71,0003.24,0002.76
2023-08-02 23:33:00,SystemResetWarning,0832.7,4.99,000.00,029.9,027.2,000.0,038.1,030.9,35.0,0000.0,0004.88,0003.27,0002.77
2023-08-02 23:34:00,SystemResetWarning,0832.7,5.00,000.00,030.0,027.5,000.0,038.2,031.0,35.8,0000.0,0004.89,0003.25,0002.76
2023-08-02 23:35:00,SystemResetWarning,0832.7,5.02,000.00,030.3,027.7,000.0,038.2,031.2,34.9,0000.0,0005.43,0003.24,0002.76
2023-08-02 23:36:00,SystemResetWarning,0832.8,4.98,000.00,030.5,026.9,000.0,038.1,031.1,34.6,0000.0,0005.34,0003.21,0002.74
2023-08-02 23:37:00,SystemResetWarning,0832.8,5.02,000.00,030.6,025.5,000.0,038.0,030.9,33.3,0000.0,0005.26,0003.19,0002.73
2023-08-02 23:38:00,SystemResetWarning,0832.8,5.01,000.00,030.6,025.0,000.0,038.0,030.7,34.4,0000.0,0005.34,0003.21,0002.73
2023-08-02 23:39:00,SystemResetWarning,0832.8,5.00,000.00,030.5,025.2,000.0,038.0,030.5,34.6,0000.0,0005.49,0003.26,0002.71
2023-08-02 23:40:00,SystemResetWarning,0833.1,5.00,000.00,030.5,025.6,000.0,038.1,030.6,34.8,0000.0,0005.59,0003.28,0002.71
2023-08-02 23:41:00,SystemResetWarning,0833.0,4.99,000.00,030.5,026.1,000.0,038.2,030.7,35.0,0000.0,0005.89,0003.33,0002.71
2023-08-02 23:42:00,SystemResetWarning,0833.2,5.00,000.00,030.6,026.6,000.0,038.3,030.9,34.8,0000.0,0005.97,0003.35,0002.72
2023-08-02 23:43:00,SystemResetWarning,0833.0,4.99,000.00,030.7,027.0,000.0,038.3,031.0,35.2,0000.0,0006.05,0003.36,0002.71
2023-08-02 23:44:00,SystemResetWarning,0833.2,5.00,000.00,031.0,027.3,000.0,038.4,031.2,32.9,0000.0,0005.86,0003.32,0002.71
2023-08-02 23:45:00,SystemResetWarning,0833.3,4.99,000.00,031.1,027.6,000.0,038.4,031.3,32.5,0000.0,0005.81,0003.34,0002.73
2023-08-02 23:46:00,SystemResetWarning,0833.5,5.01,000.00,031.2,027.7,000.0,038.5,031.3,32.7,0000.0,0005.57,0003.38,0002.74
2023-08-02 23:47:00,SystemResetWarning,0833.2,4.98,000.00,031.3,026.4,000.0,038.5,031.2,32.7,0000.0,0005.63,0003.39,0002.75
2023-08-02 23:48:00,SystemResetWarning,0833.0,5.01,000.00,031.3,025.2,000.0,038.4,030.9,32.7,0000.0,0005.84,0003.44,0002.78
2023-08-02 23:49:00,SystemResetWarning,0832.9,5.02,000.00,031.2,025.1,000.0,038.4,030.7,32.1,0000.0,0005.91,0003.45,0002.80
2023-08-02 23:50:00,SystemResetWarning,0833.1,5.00,000.00,031.0,025.4,000.0,038.5,030.6,31.7,0000.0,0005.78,0003.43,0002.80
2023-08-02 23:51:00,SystemResetWarning,0832.9,5.00,000.00,030.9,025.8,000.0,038.6,030.7,32.1,0000.0,0005.68,0003.42,0002.80
2023-08-02 23:52:00,SystemResetWarning,0833.3,5.00,000.00,030.9,026.3,000.0,038.6,030.8,32.1,0000.0,0005.67,0003.42,0002.81
2023-08-02 23:53:00,SystemResetWarning,0833.3,5.00,000.00,030.9,026.7,000.0,038.7,030.9,32.2,0000.0,0005.73,0003.43,0002.84
2023-08-02 23:54:00,SystemResetWarning,0833.4,5.00,000.00,030.9,027.1,000.0,038.7,031.0,32.2,0000.0,0005.70,0003.41,0002.84
2023-08-02 23:55:00,SystemResetWarning,0833.1,5.00,000.00,030.9,027.4,000.0,038.7,031.1,32.4,0000.0,0005.82,0003.44,0002.85
2023-08-02 23:56:00,SystemResetWarning,0833.0,5.00,000.00,030.9,027.7,000.0,038.8,031.2,32.3,0000.0,0005.82,0003.44,0002.84
2023-08-02 23:57:00,SystemResetWarning,0832.9,5.00,000.00,030.9,027.8,000.0,038.8,031.3,31.9,0000.0,0005.98,0003.41,0002.84
2023-08-02 23:58:00,SystemResetWarning,0833.3,4.98,000.00,030.9,026.8,000.0,038.7,031.2,31.2,0000.0,0005.96,0003.42,0002.85
2023-08-02 23:59:00,SystemResetWarning,0833.5,5.01,000.00,030.8,025.4,000.0,038.6,030.9,31.0,0000.0,0005.93,0003.41,0002.85
